Regional Weather Roundup
Issued by NWS

Home | Current Version | Previous Version | Graphics & Text | Print | Product List | Glossary On
Versions: 1 2 3 4 5 6 7 8 9 10 11 12 13 14 15 16 17 18 19 20 21 22 23 24 25 26 27 28 29 30 31 32 33 34 35 36 37 38 39 40 41 42 43 44 45 46 47 48 49 50
000
ASUS45 KSLC 201710
RWRUT

UTAH REGIONAL WEATHER ROUNDUP
NATIONAL WEATHER SERVICE SALT LAKE CITY UT
1100 AM MDT WED AUG 20 2014

UTZ001>011-023>025-201800-

NORTHERN UTAH

CITY           SKY/WX    TMP DP  RH WIND       PRES   REMARKS
HILL AFB       PTSUNNY   70  54  56 S16       30.03S
LOGAN          MOSUNNY   73  54  51 CALM      30.00R
OGDEN          MOSUNNY   71  52  50 S18       30.01S
PROVO AIRPORT  MOSUNNY   63  57  82 N3        30.07S
SALT LAKE CITY MOSUNNY   70  55  59 S15G22    30.01R
VERNAL         MOSUNNY   65  57  75 SW8       30.07S
WENDOVER       SUNNY     73  48  40 S7        29.98S
HEBER CITY     PTSUNNY   61  54  77 CALM      30.09S
WEST JORDAN    SUNNY     70  61  73 SE17      30.04S

$$

UTZ012>022-026-027-201800-

SOUTHERN UTAH

CITY           SKY/WX    TMP DP  RH WIND       PRES   REMARKS
BRYCE CANYON   MOSUNNY   62  50  64 SE9       30.24R
CEDAR CITY     SUNNY     71  52  50 SW12      30.12S
MILFORD        PTSUNNY   70  54  56 S17       30.08R
MOAB/CYNLANDS  PTSUNNY   72  59  63 VRB3      30.03R
PRICE          MOSUNNY   67  55  65 VRB3      30.11S
ST GEORGE      PTSUNNY   73  59  60 CALM      30.03S
KANAB            N/A     70  54  56 S10       30.16S

$$

REGIONAL REPORTS     COLORADO/ARIZONA

CITY           SKY/WX    TMP DP  RH WIND       PRES   REMARKS
CRAIG, CO      MOSUNNY   69  54  58 SW9G18    30.10S
GRAND JUNCTION PTSUNNY   70  59  68 VRB3      30.06R
RIFLE          CLOUDY    68  56  65 N5        30.08S
MONTROSE       MOSUNNY   71  58  63 NW7       30.12S
CORTEZ         MOSUNNY   70  51  51 S3        30.16R
PAGE, AZ       SUNNY     75  56  51 NE3       30.07S
GRAND CANYON   MOSUNNY   61  55  81 SW10G17   30.25S
KINGMAN        SUNNY     78  54  43 CALM      30.05R
FLAGSTAFF      MOSUNNY   66  49  54 SW7       30.28R

$$

REGIONAL REPORTS    NEVADA/IDAHO/WYOMING

CITY           SKY/WX    TMP DP  RH WIND       PRES   REMARKS
LAS VEGAS, NV  PTSUNNY   83  47  28 SE7       29.91R
ELY            MOSUNNY   67  52  58 S13       30.12S
ELKO           SUNNY     74  45  35 W6        30.00S
POCATELLO, ID  MOSUNNY   72  56  57 N5        29.98S
BURLEY         SUNNY     74  51  44 CALM      29.93R
EVANSTON, WY   MOSUNNY   61  51  70 SW16      30.14R
ROCK SPRINGS   PTSUNNY   64  50  60 W13G20    30.11R

$$



USA.gov is the U.S. government's official web portal to all federal, state and local government web resources and services.